sat.trackr.live / text

‹ back to catalog

STARLINK-3517

NORAD 51735 · 2022-016X

PAYLOAD ACTIVE UNKNOWN

§ Identity

Operator
Country
US
Launch date
2022-02-21
Launch site
AFETR
Launch vehicle
Mass (kg)
RCS (m²)

Purposes: comms

External: N2YO · Heavens-Above · Gunter

§ Orbital elements

Epoch: 2026-09-20T04:15:23.484960Z

Period
93.85 min
Inclination
53.1582°
Eccentricity
0.0001135
Mean motion
15.34365041 rev/d
Perigee alt
462.0 km
Apogee alt
463.6 km
Semi-major
6,840.9 km
B*
2.3077e-4
RAAN
151.0309°
Arg perigee
91.8913°
Mean anomaly
268.2219°
Rev number
25,313

§ Raw data

STARLINK-35171 51735U 22016X   26263.17735515  .00007420  00000+0  23077-3 0  99992 51735  53.1582 151.0309 0001135  91.8913 268.2219 15.34365041253133

JSON: /api/v1/satellites/51735 · /tle

For live sub-satellite position, see the globe view (requires WebGL).

§ Visibility from observer

Set your observer location to see the next 7 days of passes ≥ 10°. The values pass through the URL so the page stays shareable.

No JS? Fill the form by hand. The geolocation button needs JavaScript.